Regional Weather Roundup
Issued by NWS Cleveland, OH

Home | Current Version | Previous Version | Graphics & Text | Print | Product List | Glossary On
Versions: 1 2 3 4 5 6 7 8 9 10 11 12 13 14 15 16 17 18 19 20 21 22 23 24 25 26 27 28 29 30 31 32 33 34 35 36 37 38 39 40 41 42 43 44 45 46 47 48 49 50
000
ASUS41 KCLE 281700
RWRCLE
OHIO REGIONAL WEATHER ROUNDUP
NATIONAL WEATHER SERVICE WILMINGTON, OH
100 PM EDT FRI APR 28 2017

NOTE: "FAIR" INDICATES FEW OR NO CLOUDS BELOW 12,000 FEET WITH NO
SIGNIFICANT WEATHER AND/OR OBSTRUCTIONS TO VISIBILITY.

OHZ001>008-015>018-024>027-034-035-043-044-281800-
   NORTHWEST OHIO

CITY           SKY/WX    TMP DP  RH WIND       PRES   REMARKS
DEFIANCE       FAIR      56  40  55 S12       30.01R
FINDLAY        FAIR      58  43  57 S16       30.01S
TOLEDO EXPRESS FAIR      59  41  51 SE8       30.01R
TOLEDO EXEC    FAIR      60  42  51 S13       30.01S
LIMA           PTSUNNY   56  46  69 S12       30.02S
$$

OHZ009>014-019>023-028>033-038-089-281800-
   NORTHEAST OHIO

CITY           SKY/WX    TMP DP  RH WIND       PRES   REMARKS
CLE-HOPKINS    PTSUNNY   62  42  47 S9        30.04F
CLE-LAKEFRONT  FAIR      56  45  66 NW7       30.01F
CUY CO. ARPT   MOSUNNY   64  46  52 SW10      30.02F
LORAIN-ELYRIA  FAIR      59  40  49 SW10      30.02F
ASHTABULA      FAIR      63  44  50 SW9       30.05R
AKRON-CANTON   PTSUNNY   62  44  51 S10       30.03F
WOOSTER        NOT AVBL
MANSFIELD      FAIR      58  44  60 S8        30.04R
YOUNGSTOWN     CLOUDY    63  46  54 S12G18    30.04S
$$

OHZ042-051>053-060>062-070>072-077>081-281800-
  SOUTHWEST OHIO

CITY           SKY/WX    TMP DP  RH WIND       PRES   REMARKS
CINC-COVINGTON PTSUNNY   65  51  60 SE6       29.99F
CINC-LUNKEN    FAIR      66  53  63 CALM      30.00S
HAMILTON       FAIR      62  50  64 CALM      30.01F
DAYTON         NOT AVBL
WRIGHT-PAT AFB NOT AVBL
DAYTON GENERAL FAIR      60  49  66 SE7       30.01S
WILMINGTON     FAIR      66  51  58 SE6       30.01S
$$

OHZ036-037-039>041-045>050-054>059-063>069-073>076-082>088-281800-
  CENTRAL AND SOUTHEAST OHIO

CITY           SKY/WX    TMP DP  RH WIND       PRES   REMARKS
COLUMBUS       PTSUNNY   63  47  55 E7        30.01F
OSU AIRPORT    PTSUNNY   61  48  62 SE3       30.01F
BOLTON FIELD   MOSUNNY   63  48  59 SE5       30.04R
RICKENBACK AFB NOT AVBL
NEWARK         FAIR      66  45  46 S7        30.02F
MARION         FAIR      59  45  59 SW12G22   30.04S
LANCASTER      FAIR      69  48  47 VRB3      30.02S
ZANESVILLE     FAIR      66  48  52 SE8       30.03F
NEW PHILLY     FAIR      66  45  46 SE7       30.04F
$$




USA.gov is the U.S. government's official web portal to all federal, state and local government web resources and services.